Date,TemperatureHighF,TemperatureAvgF,TemperatureLowF,DewpointHighF,DewpointAvgF,DewpointLowF,HumidityHigh,HumidityAvg,HumidityLow,PressureMaxIn,PressureMinIn,WindSpeedMaxMPH,WindSpeedAvgMPH,GustSpeedMaxMPH,PrecipitationSumIn
2013-3-1,69,53,37,-100,-100,-100,0,0,100,0.00,40.00,0,-999,0,0.00
2013-3-2,60,48,40,-100,-100,-100,0,0,100,0.00,40.00,0,-999,0,0.00
2013-3-3,73,57,38,-100,-100,-100,0,0,100,0.00,40.00,0,-999,0,0.00
2013-3-4,78,67,59,-100,-100,-100,0,0,100,0.00,40.00,0,-999,0,0.00
2013-3-5,69,62,52,-100,-100,-100,0,0,100,0.00,40.00,0,-999,0,0.00
2013-3-6,69,52,37,-100,-100,-100,0,0,100,0.00,40.00,0,-999,0,0.00
2013-3-7,75,58,42,-100,-100,-100,0,0,100,0.00,40.00,0,-999,0,0.00
2013-3-8,74,64,55,-100,-100,-100,0,0,100,0.00,40.00,0,-999,0,0.00
2013-3-9,80,70,66,-100,-100,-100,0,0,100,0.00,40.00,0,-999,0,0.00
2013-3-10,72,66,54,-100,-100,-100,0,0,100,0.00,40.00,0,-999,0,0.00
2013-3-11,66,55,47,-100,-100,-100,0,0,100,0.00,40.00,0,-999,0,0.00
2013-3-12,78,58,39,-100,-100,-100,0,0,100,0.00,40.00,0,-999,0,0.00
2013-3-13,76,58,46,-100,-100,-100,0,0,100,0.00,40.00,0,-999,0,0.00
2013-3-14,77,62,43,-100,-100,-100,0,0,100,0.00,40.00,0,-999,0,0.00
2013-3-15,81,62,51,-100,-100,-100,0,0,100,0.00,40.00,0,-999,0,0.00
2013-3-16,80,68,59,-100,-100,-100,0,0,100,0.00,40.00,0,-999,0,0.00
2013-3-17,83,73,65,-100,-100,-100,0,0,100,0.00,40.00,0,-999,0,0.00
2013-3-18,89,76,68,-100,-100,-100,0,0,100,0.00,40.00,0,-999,0,0.00
2013-3-19,84,70,58,-100,-100,-100,0,0,100,0.00,40.00,0,-999,0,0.00
2013-3-20,76,66,58,-100,-100,-100,0,0,100,0.00,40.00,0,-999,0,0.00
2013-3-21,76,65,53,-100,-100,-100,0,0,100,0.00,40.00,0,-999,0,0.00
2013-3-22,79,74,69,-100,-100,-100,0,0,100,0.00,40.00,0,-999,0,0.00
2013-3-23,78,71,61,-100,-100,-100,0,0,100,0.00,40.00,0,-999,0,0.00
2013-3-24,63,59,47,-100,-100,-100,0,0,100,0.00,40.00,0,-999,0,0.00
2013-3-25,62,51,39,-100,-100,-100,0,0,100,0.00,40.00,0,-999,0,0.00
2013-3-26,64,50,35,-100,-100,-100,0,0,100,0.00,40.00,0,-999,0,0.00
2013-3-27,73,58,43,-100,-100,-100,0,0,100,0.00,40.00,0,-999,0,0.00
2013-3-28,78,69,64,-100,-100,-100,0,0,100,0.00,40.00,0,-999,0,0.00
2013-3-29,82,68,56,-100,-100,-100,0,0,100,0.00,40.00,0,-999,0,0.00
2013-3-30,84,72,60,-100,-100,-100,0,0,100,0.00,40.00,0,-999,0,0.00
2013-3-31,85,75,69,-100,-100,-100,0,0,100,0.00,40.00,0,-999,0,0.00